Location: LDNL
(36.4545°S, 141.6685°E)
Time: 11:36:11
(UTC+10:00)

Vanguard 3 - Pass Details

Date: 04 February 2022
Orbit: 508 x 3258 km, 33.3° (Epoch: 25 May)

Event Time Altitude Azimuth Distance (km) Brightness Sun altitude
Rises 23:23:24 0° 293° (WNW) 3,008 10.3 -27.4°
Reaches altitude 10° 23:25:20 10° 297° (WNW) 2,272 9.6 -27.6°
Enters shadow 23:28:23 39° 316° (NW) 1,342 8.1 -28.0°
Maximum altitude 23:30:30 60° 16° (NNE) 1,175 - -28.3°
Drops below altitude 10° 23:39:31 10° 92° (E) 3,874 - -29.4°
Sets 23:43:48 0° 95° (E) 5,342 - -29.9°
